Weather History for St. Joseph, MO

Change the Weather History Date:

Thursday, November 22, 2012

  Actual Average Record
Temperature  
Mean Temperature 55 °F 39 °F  
Max Temperature 72 °F 50 °F 78 °F (1966)
Min Temperature 38 °F 28 °F 10 °F (1929)
Degree Days  
Heating Degree Days 10 26  
Month to date heating degree days 362 465  
Since 1 July heating degree days 863 884  
Cooling Degree Days 0 0  
Month to date cooling degree days 5 0  
Year to date cooling degree days 1565 1220  
Growing Degree Days 4 (Base 50)    
Moisture  
Dew Point 41 °F    
Average Humidity 55    
Maximum Humidity 76    
Minimum Humidity 34    
Precipitation  
Precipitation 0.00 in 0.04 in 1.48 in (1999)
Month to date precipitation 1.79 1.23  
Year to date precipitation 22.31 33.76  
Sea Level Pressure  
Sea Level Pressure 29.94 in    
Wind  
Wind Speed 14 mph (WSW)    
Max Wind Speed 30 mph    
Max Gust Speed 36 mph    
Visibility 10 miles    
Events      
T = Trace of Precipitation, MM = Missing Value Source: NWS Daily Summary

Daily Weather History Graph

Daily Weather History Graph

Search for Another Location

Airport:

Trip Planner

Search our weather history database for the weather conditions in past years. The results will help you decide how hot, cold, wet, or windy it might be!

Date:

Astronomy

Nov. 22, 2012 Rise Set
Actual Time 7:12 AM CST 4:58 PM CST
Civil Twilight 6:43 AM CST 5:28 PM CST
Nautical Twilight 6:10 AM CST 6:01 PM CST
Astronomical Twilight 5:38 AM CST 6:33 PM CST
Moon 1:44 PM CST 1:34 AM CST
Length of Visible Light 10h 44m
Length of Day
9h 46m
Waxing Gibbous, 71% of the Moon is Illuminated
Nov 22
Waxing Gibbous
Nov 28
Full
Dec 6
Last Quarter
Dec 13
New
Dec 19
First Quarter

Hourly Weather History & Observations

Time (CST) Temp. Windchill Dew Point Humidity Pressure Visibility Wind Dir Wind Speed Gust Speed Precip Events Conditions
12:53 AM 57.9 °F - 37.9 °F 47% 29.91 in 10.0 mi South 11.5 mph - N/A   Clear
1:53 AM 57.9 °F - 39.0 °F 49% 29.88 in 10.0 mi South 12.7 mph - N/A   Partly Cloudy
2:53 AM 57.0 °F - 39.9 °F 53% 29.86 in 10.0 mi South 11.5 mph - N/A   Partly Cloudy
3:53 AM 59.0 °F - 41.0 °F 51% 29.83 in 10.0 mi South 13.8 mph - N/A   Clear
4:53 AM 60.1 °F - 42.1 °F 51% 29.82 in 10.0 mi South 13.8 mph - N/A   Clear
5:53 AM 59.0 °F - 43.0 °F 55% 29.81 in 10.0 mi South 13.8 mph 23.0 mph N/A   Clear
6:53 AM 59.0 °F - 44.1 °F 58% 29.82 in 10.0 mi SSW 10.4 mph - N/A   Clear
7:53 AM 61.0 °F - 45.0 °F 56% 29.81 in 10.0 mi SSW 12.7 mph - N/A   Clear
8:53 AM 63.0 °F - 46.0 °F 54% 29.83 in 10.0 mi SSW 12.7 mph - N/A   Clear
9:53 AM 64.9 °F - 46.9 °F 52% 29.84 in 10.0 mi SW 17.3 mph 26.5 mph N/A   Clear
10:53 AM 66.9 °F - 46.9 °F 49% 29.84 in 10.0 mi SSW 21.9 mph 28.8 mph N/A   Clear
11:53 AM 66.9 °F - 48.0 °F 51% 29.83 in 10.0 mi SW 19.6 mph 28.8 mph N/A   Partly Cloudy
12:53 PM 68.0 °F - 48.9 °F 50% 29.82 in 10.0 mi SSW 16.1 mph 23.0 mph N/A   Partly Cloudy
1:53 PM 68.0 °F - 48.9 °F 50% 29.83 in 10.0 mi SW 11.5 mph - N/A   Clear
2:53 PM 72.0 °F - 51.1 °F 48% 29.84 in 10.0 mi WSW 11.5 mph - N/A   Clear
3:13 PM 69.8 °F - 42.8 °F 38% 29.87 in 10.0 mi NW 19.6 mph 29.9 mph N/A   Partly Cloudy
3:53 PM 66.0 °F - 37.9 °F 36% 29.91 in 9.0 mi NNW 23.0 mph 29.9 mph N/A   Clear
4:53 PM 60.1 °F - 37.9 °F 44% 29.99 in 8.0 mi NNW 27.6 mph 33.4 mph N/A   Clear
5:53 PM 55.9 °F - 37.9 °F 51% 30.06 in 10.0 mi NNW 18.4 mph 32.2 mph N/A   Clear
6:53 PM 53.1 °F - 36.0 °F 52% 30.13 in 10.0 mi NNW 16.1 mph 25.3 mph N/A   Clear
7:53 PM 50.0 °F - 35.1 °F 57% 30.17 in 10.0 mi North 11.5 mph - N/A   Clear
8:53 PM 45.0 °F 41.2 °F 34.0 °F 65% 30.20 in 10.0 mi NNW 6.9 mph - N/A   Clear
9:53 PM 37.9 °F - 30.9 °F 76% 30.23 in 10.0 mi Calm Calm - N/A   Clear
10:53 PM 41.0 °F 38.0 °F 30.9 °F 67% 30.24 in 10.0 mi NNW 4.6 mph - N/A   Clear
11:53 PM 42.1 °F 35.7 °F 33.1 °F 70% 30.25 in 10.0 mi WNW 11.5 mph - N/A   Clear